Orbital Elements
Epoch 2016 July 31.0 TT = JDT 2457600.5
T 2016 June 30.12774 TT MPCW
q 1.4300885 (2000.0) P Q
n 0.12137158 Peri. 316.97757 +0.93962556 -0.13407991
a 4.0400932 Node 53.45406 +0.30229863 +0.75639986
e 0.6460259 Incl. 23.07269 -0.16037254 +0.64022014
P 8.12
From 18 observations 2008 Aug. 21-2016 May 4, mean residual 0".9.
|